Location: *
(46.0770°N, 1.6444°E)
Time: 01:40:56
(UTC+00:00)

SL-8 Rocket - Pass Details

Date: 16 September 2019
Orbit: 956 x 991 km, 82.9° (Epoch: 16 October)

Event Time Altitude Azimuth Distance (km) Brightness Sun altitude
Rises 19:52:58 0° 353° (N) 3,675 7.5 -19.1°
Reaches altitude 10° 19:55:31 10° 356° (N) 2,719 6.7 -19.5°
Maximum altitude 20:01:43 68° 79° (E) 1,036 3.9 -20.5°
Enters shadow 20:04:45 31° 154° (SSE) 1,610 4.7 -20.9°
